Location: Grange Verzio
(44.5000°N, 6.9833°E)
Time: 18:21:24
(UTC+00:00)

Cosmos 2219 Rocket - Pass Details

Date: 26 September 2023
Orbit: 826 x 848 km, 71.0° (Epoch: 08 December)

Event Time Altitude Azimuth Distance (km) Brightness Sun altitude
Rises 03:18:17 0° 339° (NNW) 3,393 5.4 -22.6°
Reaches altitude 10° 03:20:52 10° 346° (NNW) 2,459 4.7 -22.2°
Maximum altitude 03:26:12 42° 57° (ENE) 1,187 3.4 -21.3°
Drops below altitude 10° 03:31:33 10° 128° (SE) 2,459 5.0 -20.4°
Sets 03:34:07 0° 135° (SE) 3,392 5.7 -20.0°
